Weather History for South Bend, IN

Change the Weather History Date:

Wednesday, April 24, 2013

  Actual Average Record
Temperature  
Mean Temperature 41 °F 52 °F  
Max Temperature 46 °F 63 °F 85 °F (1960)
Min Temperature 36 °F 42 °F 25 °F (1930)
Degree Days  
Heating Degree Days 24 13  
Month to date heating degree days 474 416  
Since 1 July heating degree days 5885 5960  
Cooling Degree Days 0 0  
Month to date cooling degree days 0 0  
Year to date cooling degree days 0 1  
Moisture  
Dew Point 30 °F    
Average Humidity 66    
Maximum Humidity 92    
Minimum Humidity 40    
Precipitation  
Precipitation 0.03 in 0.11 in 1.64 in (1976)
Month to date precipitation 5.16 2.55  
Year to date precipitation 13.91 9.21  
Snow  
Snow T in - - ()
Month to date snowfall T  
Snow Depth 0.00 in    
Sea Level Pressure  
Sea Level Pressure 30.00 in    
Wind  
Wind Speed 12 mph (NW)    
Max Wind Speed 21 mph    
Max Gust Speed 26 mph    
Visibility 10 miles    
Events Rain    
T = Trace of Precipitation, MM = Missing Value Source: NWS Daily Summary

Daily Weather History Graph

Daily Weather History Graph

Search for Another Location

Airport:

Trip Planner

Search our weather history database for the weather conditions in past years. The results will help you decide how hot, cold, wet, or windy it might be!

Date:

Astronomy

Apr. 24, 2013 Rise Set
Actual Time 6:51 AM EDT 8:36 PM EDT
Civil Twilight 6:21 AM EDT 9:05 PM EDT
Nautical Twilight 5:45 AM EDT 9:41 PM EDT
Astronomical Twilight 5:07 AM EDT 10:20 PM EDT
Moon 7:38 PM EDT (4/24) 5:55 AM EDT (4/24)
Length of Visible Light 14h 44m
Length of Day
13h 44m
Waxing Gibbous, 98% of the Moon is Illuminated
Apr 24
Waxing Gibbous
Apr 25
Full
May 2
Last Quarter
May 9
New
May 18
First Quarter

Hourly Weather History & Observations

Time (EDT) Temp. Windchill Dew Point Humidity Pressure Visibility Wind Dir Wind Speed Gust Speed Precip Events Conditions
12:54 AM 39.0 °F 31.4 °F 37.0 °F 93% 29.88 in 10.0 mi NNW 12.7 mph - 0.01 in   Overcast
1:54 AM 37.9 °F 31.5 °F 36.0 °F 93% 29.87 in 8.0 mi NNW 9.2 mph - 0.02 in Rain Light Rain
2:54 AM 37.9 °F 30.9 °F 36.0 °F 93% 29.88 in 10.0 mi NNW 10.4 mph - 0.01 in   Overcast
3:54 AM 37.9 °F 27.9 °F 35.1 °F 89% 29.89 in 10.0 mi NNW 19.6 mph 24.2 mph N/A   Overcast
4:27 AM 37.4 °F 27.5 °F 33.8 °F 87% 29.88 in 10.0 mi North 18.4 mph - N/A   Overcast
4:54 AM 37.0 °F 28.1 °F 33.1 °F 86% 29.90 in 10.0 mi North 15.0 mph - N/A   Overcast
5:03 AM 35.6 °F 25.9 °F 33.8 °F 93% 29.89 in 10.0 mi North 16.1 mph - N/A   Overcast
5:37 AM 37.4 °F 28.9 °F 33.8 °F 87% 29.91 in 10.0 mi North 13.8 mph - N/A   Overcast
5:54 AM 37.0 °F 27.7 °F 32.0 °F 82% 29.93 in 10.0 mi North 16.1 mph - N/A   Overcast
6:54 AM 37.0 °F 28.5 °F 30.9 °F 79% 29.94 in 10.0 mi North 13.8 mph - N/A   Overcast
7:54 AM 37.0 °F 28.5 °F 32.0 °F 82% 29.95 in 10.0 mi NNW 13.8 mph - N/A   Overcast
8:54 AM 36.0 °F 27.5 °F 30.9 °F 82% 29.95 in 10.0 mi North 12.7 mph - N/A   Overcast
9:47 AM 35.6 °F 28.0 °F 32.0 °F 87% 29.93 in 10.0 mi NNW 10.4 mph - 0.00 in   Overcast
9:54 AM 36.0 °F 27.1 °F 30.9 °F 82% 29.95 in 10.0 mi NNW 13.8 mph - 0.00 in   Overcast
10:54 AM 36.0 °F 29.0 °F 30.9 °F 82% 30.00 in 10.0 mi NNW 9.2 mph - 0.00 in   Overcast
11:54 AM 37.9 °F 31.5 °F 30.0 °F 73% 30.01 in 10.0 mi NNW 9.2 mph - 0.00 in   Overcast
12:54 PM 39.0 °F 30.3 °F 28.9 °F 67% 30.00 in 10.0 mi NNW 16.1 mph - N/A   Overcast
1:31 PM 39.2 °F 31.2 °F 30.2 °F 70% 30.01 in 10.0 mi NW 13.8 mph 24.2 mph 0.00 in Rain Light Rain
1:41 PM 39.2 °F 29.8 °F 30.2 °F 70% 30.01 in 10.0 mi NW 18.4 mph 24.2 mph 0.00 in   Overcast
1:54 PM 41.0 °F 32.5 °F 30.0 °F 65% 30.04 in 10.0 mi NW 17.3 mph 24.2 mph 0.00 in   Overcast
2:54 PM 41.0 °F 32.5 °F 28.0 °F 60% 30.06 in 10.0 mi NW 17.3 mph 23.0 mph N/A   Mostly Cloudy
3:54 PM 43.0 °F 35.4 °F 26.1 °F 51% 30.07 in 10.0 mi WNW 16.1 mph 26.5 mph N/A   Partly Cloudy
4:54 PM 44.1 °F 36.2 °F 21.0 °F 40% 30.09 in 10.0 mi NW 18.4 mph - N/A   Clear
5:54 PM 45.0 °F 38.5 °F 23.0 °F 42% 30.09 in 10.0 mi WNW 13.8 mph 17.3 mph N/A   Clear
6:54 PM 45.0 °F 41.2 °F 24.1 °F 44% 30.10 in 10.0 mi WNW 6.9 mph - N/A   Clear
7:54 PM 45.0 °F 40.6 °F 25.0 °F 46% 30.11 in 10.0 mi WSW 8.1 mph - N/A   Clear
8:54 PM 42.1 °F 39.2 °F 27.0 °F 55% 30.12 in 10.0 mi SSW 4.6 mph - N/A   Clear
9:54 PM 39.9 °F 35.8 °F 28.9 °F 65% 30.16 in 10.0 mi SSW 5.8 mph - N/A   Clear
10:54 PM 39.9 °F 35.8 °F 28.9 °F 65% 30.17 in 10.0 mi SSW 5.8 mph - N/A   Clear
11:54 PM 39.0 °F 33.4 °F 30.0 °F 70% 30.17 in 10.0 mi SSW 8.1 mph - N/A   Clear